Location: Lac de la Montagne noire
(46.1952°N, 74.2701°W)
Time: 00:27:52
(UTC-04:00)

Envisat - Pass Details

Date: 28 March 2019
Orbit: 764 x 766 km, 98.1° (Epoch: 13 October)

Event Time Altitude Azimuth Distance (km) Brightness Sun altitude
Rises 20:55:59 0° 214° (SW) 3,218 6.4 -16.8°
Reaches altitude 10° 20:59:20 10° 238° (WSW) 2,299 5.9 -17.3°
Maximum altitude 21:02:08 15° 272° (W) 1,988 6.1 -17.8°
Drops below altitude 10° 21:04:58 10° 306° (NW) 2,309 6.7 -18.2°
Sets 21:08:21 0° 330° (NNW) 3,242 7.2 -18.8°
